Year,Month,Day,Hour,Minute,Value (Times are PST for temperature in C)
2018,06,17,00,00,17.70
2018,06,17,00,01,17.60
2018,06,17,00,02,17.60
2018,06,17,00,03,17.50
2018,06,17,00,04,17.50
2018,06,17,00,05,17.50
2018,06,17,00,06,17.40
2018,06,17,00,07,17.40
2018,06,17,00,08,17.30
2018,06,17,00,09,17.30
2018,06,17,00,10,17.30
2018,06,17,00,11,17.30
2018,06,17,00,12,17.20
2018,06,17,00,13,17.20
2018,06,17,00,14,17.20
2018,06,17,00,15,17.20
2018,06,17,00,16,17.20
2018,06,17,00,17,17.10
2018,06,17,00,18,17.10
2018,06,17,00,19,17.10
2018,06,17,00,20,17.10
2018,06,17,00,21,17.10
2018,06,17,00,22,17.00
2018,06,17,00,23,17.00
2018,06,17,00,24,17.00
2018,06,17,00,25,16.90
2018,06,17,00,26,16.90
2018,06,17,00,27,16.90
2018,06,17,00,28,16.90
2018,06,17,00,29,16.90
2018,06,17,00,30,16.90
2018,06,17,00,31,16.80
2018,06,17,00,32,16.80
2018,06,17,00,33,16.80
2018,06,17,00,34,16.80
2018,06,17,00,35,16.70
2018,06,17,00,36,16.70
2018,06,17,00,37,16.70
2018,06,17,00,38,16.70
2018,06,17,00,39,16.70
2018,06,17,00,40,16.70
2018,06,17,00,41,16.70
2018,06,17,00,42,16.70
2018,06,17,00,43,16.70
2018,06,17,00,44,16.60
2018,06,17,00,45,16.60
2018,06,17,00,46,16.60
2018,06,17,00,47,16.60
2018,06,17,00,48,16.60
2018,06,17,00,49,16.60
2018,06,17,00,50,16.60
2018,06,17,00,51,16.60
2018,06,17,00,52,16.60
2018,06,17,00,53,16.60
2018,06,17,00,54,16.50
2018,06,17,00,55,16.50
2018,06,17,00,56,16.50
2018,06,17,00,57,16.50
2018,06,17,00,58,16.50
2018,06,17,00,59,16.50
2018,06,17,01,00,16.50
2018,06,17,01,01,16.50
2018,06,17,01,02,16.50
2018,06,17,01,03,16.40
2018,06,17,01,04,16.40
2018,06,17,01,05,16.40
2018,06,17,01,06,16.40
2018,06,17,01,07,16.40
2018,06,17,01,08,16.40
2018,06,17,01,09,16.40
2018,06,17,01,10,16.40
2018,06,17,01,11,16.40
2018,06,17,01,12,16.40
2018,06,17,01,13,16.40
2018,06,17,01,14,16.40
2018,06,17,01,15,16.40
2018,06,17,01,16,16.30
2018,06,17,01,17,16.30
2018,06,17,01,18,16.30
2018,06,17,01,19,16.30
2018,06,17,01,20,16.30
2018,06,17,01,21,16.30
2018,06,17,01,22,16.30
2018,06,17,01,23,16.30
2018,06,17,01,24,16.30
2018,06,17,01,25,16.30
2018,06,17,01,26,16.30
2018,06,17,01,27,16.30
2018,06,17,01,28,16.20
2018,06,17,01,29,16.20
2018,06,17,01,30,16.20
2018,06,17,01,31,16.20
2018,06,17,01,32,16.20
2018,06,17,01,33,16.20
2018,06,17,01,34,16.20
2018,06,17,01,35,16.20
2018,06,17,01,36,16.20
2018,06,17,01,37,16.20
2018,06,17,01,38,16.10
2018,06,17,01,39,16.10
2018,06,17,01,40,16.10
2018,06,17,01,41,16.10
2018,06,17,01,42,16.10
2018,06,17,01,43,16.10
2018,06,17,01,44,16.10
2018,06,17,01,45,16.10
2018,06,17,01,46,16.10
2018,06,17,01,47,16.10
2018,06,17,01,48,16.10
2018,06,17,01,49,16.10
2018,06,17,01,50,16.10
2018,06,17,01,51,16.10
2018,06,17,01,52,16.10
2018,06,17,01,53,16.10
2018,06,17,01,54,16.10
2018,06,17,01,55,16.10
2018,06,17,01,56,16.10
2018,06,17,01,57,16.10
2018,06,17,01,58,16.10
2018,06,17,01,59,16.10
2018,06,17,02,00,16.10
2018,06,17,02,01,16.10
2018,06,17,02,02,16.20
2018,06,17,02,03,16.30
2018,06,17,02,04,16.30
2018,06,17,02,05,16.30
2018,06,17,02,06,16.40
2018,06,17,02,07,16.40
2018,06,17,02,08,16.40
2018,06,17,02,09,16.40
2018,06,17,02,10,16.40
2018,06,17,02,11,16.50
2018,06,17,02,12,16.50
2018,06,17,02,13,16.50
2018,06,17,02,14,16.50
2018,06,17,02,15,16.50
2018,06,17,02,16,16.50
2018,06,17,02,17,16.60
2018,06,17,02,18,16.60
2018,06,17,02,19,16.60
2018,06,17,02,20,16.70
2018,06,17,02,21,16.70
2018,06,17,02,22,16.80
2018,06,17,02,23,16.80
2018,06,17,02,24,16.90
2018,06,17,02,25,17.00
2018,06,17,02,26,17.00
2018,06,17,02,27,17.10
2018,06,17,02,28,17.10
2018,06,17,02,29,17.10
2018,06,17,02,30,17.10
2018,06,17,02,31,17.10
2018,06,17,02,32,17.10
2018,06,17,02,33,17.20
2018,06,17,02,34,17.20
2018,06,17,02,35,17.20
2018,06,17,02,36,17.30
2018,06,17,02,37,17.30
2018,06,17,02,38,17.40
2018,06,17,02,39,17.40
2018,06,17,02,40,17.40
2018,06,17,02,41,17.40
2018,06,17,02,42,17.40
2018,06,17,02,43,17.40
2018,06,17,02,44,17.50
2018,06,17,02,45,17.60
2018,06,17,02,46,17.70
2018,06,17,02,47,17.80
2018,06,17,02,48,17.80
2018,06,17,02,49,18.00
2018,06,17,02,50,18.10
2018,06,17,02,51,18.20
2018,06,17,02,52,18.40
2018,06,17,02,53,18.60
2018,06,17,02,54,18.60
2018,06,17,02,55,18.70
2018,06,17,02,56,18.70
2018,06,17,02,57,18.70
2018,06,17,02,58,18.80
2018,06,17,02,59,18.80
2018,06,17,03,00,18.80
2018,06,17,03,01,18.90
2018,06,17,03,02,18.90
2018,06,17,03,03,18.90
2018,06,17,03,04,18.90
2018,06,17,03,05,18.90
2018,06,17,03,06,18.90
2018,06,17,03,07,18.90
2018,06,17,03,08,19.00
2018,06,17,03,09,19.00
2018,06,17,03,10,19.10
2018,06,17,03,11,19.10
2018,06,17,03,12,19.20
2018,06,17,03,13,19.20
2018,06,17,03,14,19.20
2018,06,17,03,15,19.10
2018,06,17,03,16,19.10
2018,06,17,03,17,19.10
2018,06,17,03,18,19.00
2018,06,17,03,19,19.00
2018,06,17,03,20,18.90
2018,06,17,03,21,18.70
2018,06,17,03,22,18.60
2018,06,17,03,23,18.60
2018,06,17,03,24,18.60
2018,06,17,03,25,18.60
2018,06,17,03,26,18.60
2018,06,17,03,27,18.70
2018,06,17,03,28,18.70
2018,06,17,03,29,18.70
2018,06,17,03,30,18.80
2018,06,17,03,31,19.00
2018,06,17,03,32,19.20
2018,06,17,03,33,19.30
2018,06,17,03,34,19.40
2018,06,17,03,35,19.40
2018,06,17,03,36,19.50
2018,06,17,03,37,19.50
2018,06,17,03,38,19.60
2018,06,17,03,39,19.50
2018,06,17,03,40,19.50
2018,06,17,03,41,19.50
2018,06,17,03,42,19.50
2018,06,17,03,43,19.40
2018,06,17,03,44,19.40
2018,06,17,03,45,19.30
2018,06,17,03,46,19.20
2018,06,17,03,47,19.20
2018,06,17,03,48,19.20
2018,06,17,03,49,19.20
2018,06,17,03,50,19.20
2018,06,17,03,51,19.20
2018,06,17,03,52,19.20
2018,06,17,03,53,19.20
2018,06,17,03,54,19.20
2018,06,17,03,55,19.20
2018,06,17,03,56,19.20
2018,06,17,03,57,19.20
2018,06,17,03,58,19.20
2018,06,17,03,59,19.10
2018,06,17,04,00,19.10
2018,06,17,04,01,19.10
2018,06,17,04,02,19.10
2018,06,17,04,03,19.10
2018,06,17,04,04,19.10
2018,06,17,04,05,19.00
2018,06,17,04,06,19.00
2018,06,17,04,07,19.00
2018,06,17,04,08,19.00
2018,06,17,04,09,19.00
2018,06,17,04,10,18.90
2018,06,17,04,11,18.90
2018,06,17,04,12,18.90
2018,06,17,04,13,18.90
2018,06,17,04,14,18.80
2018,06,17,04,15,18.80
2018,06,17,04,16,18.80
2018,06,17,04,17,18.70
2018,06,17,04,18,18.70
2018,06,17,04,19,18.60
2018,06,17,04,20,18.60
2018,06,17,04,21,18.60
2018,06,17,04,22,18.50
2018,06,17,04,23,18.50
2018,06,17,04,24,18.40
2018,06,17,04,25,18.40
2018,06,17,04,26,18.40
2018,06,17,04,27,18.30
2018,06,17,04,28,18.30
2018,06,17,04,29,18.20
2018,06,17,04,30,18.20
2018,06,17,04,31,18.10
2018,06,17,04,32,18.00
2018,06,17,04,33,17.90
2018,06,17,04,34,17.90
2018,06,17,04,35,17.80
2018,06,17,04,36,17.80
2018,06,17,04,37,17.70
2018,06,17,04,38,17.60
2018,06,17,04,39,17.60
2018,06,17,04,40,17.50
2018,06,17,04,41,17.50
2018,06,17,04,42,17.40
2018,06,17,04,43,17.40
2018,06,17,04,44,17.40
2018,06,17,04,45,17.30
2018,06,17,04,46,17.30
2018,06,17,04,47,17.30
2018,06,17,04,48,17.30
2018,06,17,04,49,17.30
2018,06,17,04,50,17.20
2018,06,17,04,51,17.20
2018,06,17,04,52,17.20
2018,06,17,04,53,17.20
2018,06,17,04,54,17.20
2018,06,17,04,55,17.20
2018,06,17,04,56,17.10
2018,06,17,04,57,17.10
2018,06,17,04,58,17.10
2018,06,17,04,59,17.10
2018,06,17,05,00,17.00
2018,06,17,05,01,17.00
2018,06,17,05,02,16.90
2018,06,17,05,03,16.90
2018,06,17,05,04,16.90
2018,06,17,05,05,16.80
2018,06,17,05,06,16.80
2018,06,17,05,07,16.80
2018,06,17,05,08,16.80
2018,06,17,05,09,16.80
2018,06,17,05,10,16.70
2018,06,17,05,11,16.70
2018,06,17,05,12,16.70
2018,06,17,05,13,16.70
2018,06,17,05,14,16.70
2018,06,17,05,15,16.70
2018,06,17,05,16,16.60
2018,06,17,05,17,16.60
2018,06,17,05,18,16.60
2018,06,17,05,19,16.60
2018,06,17,05,20,16.60
2018,06,17,05,21,16.50
2018,06,17,05,22,16.50
2018,06,17,05,23,16.50
2018,06,17,05,24,16.50
2018,06,17,05,25,16.40
2018,06,17,05,26,16.40
2018,06,17,05,27,16.40
2018,06,17,05,28,16.40
2018,06,17,05,29,16.40
2018,06,17,05,30,16.40
2018,06,17,05,31,16.30
2018,06,17,05,32,16.30
2018,06,17,05,33,16.30
2018,06,17,05,34,16.30
2018,06,17,05,35,16.30
2018,06,17,05,36,16.30
2018,06,17,05,37,16.30
2018,06,17,05,38,16.30
2018,06,17,05,39,16.20
2018,06,17,05,40,16.20
2018,06,17,05,41,16.20
2018,06,17,05,42,16.20
2018,06,17,05,43,16.20
2018,06,17,05,44,16.20
2018,06,17,05,45,16.20
2018,06,17,05,46,16.20
2018,06,17,05,47,16.20
2018,06,17,05,48,16.20
2018,06,17,05,49,16.10
2018,06,17,05,50,16.10
2018,06,17,05,51,16.10
2018,06,17,05,52,16.10
2018,06,17,05,53,16.10
2018,06,17,05,54,16.10
2018,06,17,05,55,16.10
2018,06,17,05,56,16.10
2018,06,17,05,57,16.10
2018,06,17,05,58,16.10
2018,06,17,05,59,16.10
2018,06,17,06,00,16.10
2018,06,17,06,01,16.10
2018,06,17,06,02,16.10
2018,06,17,06,03,16.10
2018,06,17,06,04,16.10
2018,06,17,06,05,16.10
2018,06,17,06,06,16.20
2018,06,17,06,07,16.20
2018,06,17,06,08,16.20
2018,06,17,06,09,16.20
2018,06,17,06,10,16.20
2018,06,17,06,11,16.20
2018,06,17,06,12,16.20
2018,06,17,06,13,16.20
2018,06,17,06,14,16.30
2018,06,17,06,15,16.40
2018,06,17,06,16,16.40
2018,06,17,06,17,16.40
2018,06,17,06,18,16.50
2018,06,17,06,19,16.50
2018,06,17,06,20,16.50
2018,06,17,06,21,16.60
2018,06,17,06,22,16.60
2018,06,17,06,23,16.60
2018,06,17,06,24,16.60
2018,06,17,06,25,16.70
2018,06,17,06,26,16.70
2018,06,17,06,27,16.70
2018,06,17,06,28,16.80
2018,06,17,06,29,16.80
2018,06,17,06,30,16.80
2018,06,17,06,31,16.90
2018,06,17,06,32,17.00
2018,06,17,06,33,17.10
2018,06,17,06,34,17.10
2018,06,17,06,35,17.20
2018,06,17,06,36,17.30
2018,06,17,06,37,17.30
2018,06,17,06,38,17.30
2018,06,17,06,39,17.40
2018,06,17,06,40,17.40
2018,06,17,06,41,17.40
2018,06,17,06,42,17.40
2018,06,17,06,43,17.50
2018,06,17,06,44,17.50
2018,06,17,06,45,17.50
2018,06,17,06,46,17.60
2018,06,17,06,47,17.60
2018,06,17,06,48,17.60
2018,06,17,06,49,17.60
2018,06,17,06,50,17.60
2018,06,17,06,51,17.60
2018,06,17,06,52,17.60
2018,06,17,06,53,17.60
2018,06,17,06,54,17.60
2018,06,17,06,55,17.70
2018,06,17,06,56,17.70
2018,06,17,06,57,17.70
2018,06,17,06,58,17.70
2018,06,17,06,59,17.70
2018,06,17,07,00,17.80
2018,06,17,07,01,17.80
2018,06,17,07,02,17.80
2018,06,17,07,03,17.80
2018,06,17,07,04,17.80
2018,06,17,07,05,17.90
2018,06,17,07,06,17.90
2018,06,17,07,07,17.90
2018,06,17,07,08,18.00
2018,06,17,07,09,18.00
2018,06,17,07,10,18.10
2018,06,17,07,11,18.20
2018,06,17,07,12,18.20
2018,06,17,07,13,18.30
2018,06,17,07,14,18.30
2018,06,17,07,15,18.40
2018,06,17,07,16,18.40
2018,06,17,07,17,18.50
2018,06,17,07,18,18.50
2018,06,17,07,19,18.60
2018,06,17,07,20,18.60
2018,06,17,07,21,18.70
2018,06,17,07,22,18.70
2018,06,17,07,23,18.70
2018,06,17,07,24,18.70
2018,06,17,07,25,18.80
2018,06,17,07,26,18.80
2018,06,17,07,27,18.90
2018,06,17,07,28,18.90
2018,06,17,07,29,19.00
2018,06,17,07,30,19.10
2018,06,17,07,31,19.10
2018,06,17,07,32,19.20
2018,06,17,07,33,19.20
2018,06,17,07,34,19.20
2018,06,17,07,35,19.20
2018,06,17,07,36,19.20
2018,06,17,07,37,19.20
2018,06,17,07,38,19.20
2018,06,17,07,39,19.30
2018,06,17,07,40,19.30
2018,06,17,07,41,19.30
2018,06,17,07,42,19.30
2018,06,17,07,43,19.30
2018,06,17,07,44,19.30
2018,06,17,07,45,19.40
2018,06,17,07,46,19.40
2018,06,17,07,47,19.40
2018,06,17,07,48,19.40
2018,06,17,07,49,19.40
2018,06,17,07,50,19.40
2018,06,17,07,51,19.50
2018,06,17,07,52,19.50
2018,06,17,07,53,19.60
2018,06,17,07,54,19.60
2018,06,17,07,55,19.70
2018,06,17,07,56,19.80
2018,06,17,07,57,19.80
2018,06,17,07,58,19.90
2018,06,17,07,59,20.10
2018,06,17,08,00,20.20
2018,06,17,08,01,20.20
2018,06,17,08,02,20.20
2018,06,17,08,03,20.30
2018,06,17,08,04,20.30
2018,06,17,08,05,20.30
2018,06,17,08,06,20.40
2018,06,17,08,07,20.50
2018,06,17,08,08,20.60
2018,06,17,08,09,20.70
2018,06,17,08,10,20.80
2018,06,17,08,11,20.90
2018,06,17,08,12,20.90
2018,06,17,08,13,20.90
2018,06,17,08,14,20.90
2018,06,17,08,15,21.00
2018,06,17,08,16,21.00
2018,06,17,08,17,20.90
2018,06,17,08,18,20.90
2018,06,17,08,19,20.90
2018,06,17,08,20,20.90
2018,06,17,08,21,20.90
2018,06,17,08,22,20.90
2018,06,17,08,23,21.00
2018,06,17,08,24,21.00
2018,06,17,08,25,21.10
2018,06,17,08,26,21.10
2018,06,17,08,27,21.20
2018,06,17,08,28,21.20
2018,06,17,08,29,21.30
2018,06,17,08,30,21.30
2018,06,17,08,31,21.40
2018,06,17,08,32,21.40
2018,06,17,08,33,21.50
2018,06,17,08,34,21.50
2018,06,17,08,35,21.50
2018,06,17,08,36,21.50
2018,06,17,08,37,21.50
2018,06,17,08,38,21.60
2018,06,17,08,39,21.60
2018,06,17,08,40,21.60
2018,06,17,08,41,21.60
2018,06,17,08,42,21.70
2018,06,17,08,43,21.70
2018,06,17,08,44,21.70
2018,06,17,08,45,21.80
2018,06,17,08,46,21.80
2018,06,17,08,47,21.80
2018,06,17,08,48,21.90
2018,06,17,08,49,22.00
2018,06,17,08,50,22.10
2018,06,17,08,51,22.20
2018,06,17,08,52,22.20
2018,06,17,08,53,22.30
2018,06,17,08,54,22.30
2018,06,17,08,55,22.30
2018,06,17,08,56,22.20
2018,06,17,08,57,22.20
2018,06,17,08,58,22.30
2018,06,17,08,59,22.40
2018,06,17,09,00,22.50
2018,06,17,09,01,22.60
2018,06,17,09,02,22.60
2018,06,17,09,03,22.70
2018,06,17,09,04,22.80
2018,06,17,09,05,22.80
2018,06,17,09,06,22.90
2018,06,17,09,07,22.90
2018,06,17,09,08,23.00
2018,06,17,09,09,22.90
2018,06,17,09,10,22.90
2018,06,17,09,11,22.90
2018,06,17,09,12,22.90
2018,06,17,09,13,22.90
2018,06,17,09,14,22.90
2018,06,17,09,15,22.90
2018,06,17,09,16,22.90
2018,06,17,09,17,22.90
2018,06,17,09,18,22.90
2018,06,17,09,19,23.00
2018,06,17,09,20,23.10
2018,06,17,09,21,23.20
2018,06,17,09,22,23.20
2018,06,17,09,23,23.20
2018,06,17,09,24,23.20
2018,06,17,09,25,23.10
2018,06,17,09,26,23.10
2018,06,17,09,27,23.20
2018,06,17,09,28,23.20
2018,06,17,09,29,23.30
2018,06,17,09,30,23.30
2018,06,17,09,31,23.30
2018,06,17,09,32,23.30
2018,06,17,09,33,23.20
2018,06,17,09,34,23.10
2018,06,17,09,35,23.10
2018,06,17,09,36,23.20
2018,06,17,09,37,23.20
2018,06,17,09,38,23.30
2018,06,17,09,39,23.50
2018,06,17,09,40,23.60
2018,06,17,09,41,23.60
2018,06,17,09,42,23.60
2018,06,17,09,43,23.60
2018,06,17,09,44,23.60
2018,06,17,09,45,23.70
2018,06,17,09,46,23.80
2018,06,17,09,47,23.80
2018,06,17,09,48,23.90
2018,06,17,09,49,24.00
2018,06,17,09,50,24.10
2018,06,17,09,51,24.10
2018,06,17,09,52,24.20
2018,06,17,09,53,24.30
2018,06,17,09,54,24.30
2018,06,17,09,55,24.30
2018,06,17,09,56,24.20
2018,06,17,09,57,24.10
2018,06,17,09,58,24.00
2018,06,17,09,59,23.90
2018,06,17,10,00,23.80
2018,06,17,10,01,23.80
2018,06,17,10,02,23.80
2018,06,17,10,03,23.80
2018,06,17,10,04,23.80
2018,06,17,10,05,23.80
2018,06,17,10,06,23.80
2018,06,17,10,07,23.80
2018,06,17,10,08,23.70
2018,06,17,10,09,23.70
2018,06,17,10,10,23.70
2018,06,17,10,11,23.70
2018,06,17,10,12,23.80
2018,06,17,10,13,23.80
2018,06,17,10,14,23.90
2018,06,17,10,15,23.90
2018,06,17,10,16,23.80
2018,06,17,10,17,23.80
2018,06,17,10,18,23.80
2018,06,17,10,19,23.80
2018,06,17,10,20,23.80
2018,06,17,10,21,23.70
2018,06,17,10,22,23.70
2018,06,17,10,23,23.70
2018,06,17,10,24,23.70
2018,06,17,10,25,23.70
2018,06,17,10,26,23.80
2018,06,17,10,27,23.80
2018,06,17,10,28,23.90
2018,06,17,10,29,23.80
2018,06,17,10,30,23.70
2018,06,17,10,31,23.50
2018,06,17,10,32,23.30
2018,06,17,10,33,23.20
2018,06,17,10,34,23.10
2018,06,17,10,35,23.00
2018,06,17,10,36,23.00
2018,06,17,10,37,22.90
2018,06,17,10,38,22.90
2018,06,17,10,39,23.00
2018,06,17,10,40,23.00
2018,06,17,10,41,23.00
2018,06,17,10,42,22.90
2018,06,17,10,43,23.00
2018,06,17,10,44,23.00
2018,06,17,10,45,22.90
2018,06,17,10,46,23.00
2018,06,17,10,47,23.00
2018,06,17,10,48,23.00
2018,06,17,10,49,22.90
2018,06,17,10,50,22.80
2018,06,17,10,51,22.90
2018,06,17,10,52,22.90
2018,06,17,10,53,22.90
2018,06,17,10,54,22.80
2018,06,17,10,55,22.80
2018,06,17,10,56,22.80
2018,06,17,10,57,22.90
2018,06,17,10,58,22.80
2018,06,17,10,59,22.70
2018,06,17,11,00,22.70
2018,06,17,11,01,22.70
2018,06,17,11,02,22.70
2018,06,17,11,03,22.70
2018,06,17,11,04,22.70
2018,06,17,11,05,22.80
2018,06,17,11,06,23.00
2018,06,17,11,07,23.00
2018,06,17,11,08,23.00
2018,06,17,11,09,23.10
2018,06,17,11,10,23.10
2018,06,17,11,11,23.10
2018,06,17,11,12,23.00
2018,06,17,11,13,23.00
2018,06,17,11,14,23.00
2018,06,17,11,15,23.10
2018,06,17,11,16,23.00
2018,06,17,11,17,23.00
2018,06,17,11,18,23.10
2018,06,17,11,19,23.20
2018,06,17,11,20,23.30
2018,06,17,11,21,23.40
2018,06,17,11,22,23.50
2018,06,17,11,23,23.60
2018,06,17,11,24,23.60
2018,06,17,11,25,23.70
2018,06,17,11,26,23.80
2018,06,17,11,27,23.90
2018,06,17,11,28,23.90
2018,06,17,11,29,24.00
2018,06,17,11,30,24.00
2018,06,17,11,31,24.10
2018,06,17,11,32,24.10
2018,06,17,11,33,24.00
2018,06,17,11,34,23.90
2018,06,17,11,35,24.00
2018,06,17,11,36,23.90
2018,06,17,11,37,23.90
2018,06,17,11,38,24.00
2018,06,17,11,39,24.10
2018,06,17,11,40,24.20
2018,06,17,11,41,24.20
2018,06,17,11,42,24.20
2018,06,17,11,43,24.20
2018,06,17,11,44,24.20
2018,06,17,11,45,24.20
2018,06,17,11,46,24.20
2018,06,17,11,47,24.40
2018,06,17,11,48,24.60
2018,06,17,11,49,24.70
2018,06,17,11,50,24.80
2018,06,17,11,51,24.80
2018,06,17,11,52,24.80
2018,06,17,11,53,24.90
2018,06,17,11,54,24.90
2018,06,17,11,55,24.90
2018,06,17,11,56,24.80
2018,06,17,11,57,24.80
2018,06,17,11,58,24.70
2018,06,17,11,59,24.70
2018,06,17,12,00,24.90
2018,06,17,12,01,24.90
2018,06,17,12,02,25.10
2018,06,17,12,03,25.30
2018,06,17,12,04,25.40
2018,06,17,12,05,25.70
2018,06,17,12,06,25.90
2018,06,17,12,07,25.90
2018,06,17,12,08,25.80
2018,06,17,12,09,25.60
2018,06,17,12,10,25.60
2018,06,17,12,11,25.60
2018,06,17,12,12,25.60
2018,06,17,12,13,25.50
2018,06,17,12,14,25.50
2018,06,17,12,15,25.50
2018,06,17,12,16,25.60
2018,06,17,12,17,25.60
2018,06,17,12,18,25.50
2018,06,17,12,19,25.60
2018,06,17,12,20,25.70
2018,06,17,12,21,25.90
2018,06,17,12,22,26.00
2018,06,17,12,23,26.20
2018,06,17,12,24,26.10
2018,06,17,12,25,25.90
2018,06,17,12,26,25.70
2018,06,17,12,27,25.70
2018,06,17,12,28,25.50
2018,06,17,12,29,25.40
2018,06,17,12,30,25.20
2018,06,17,12,31,25.10
2018,06,17,12,32,24.90
2018,06,17,12,33,24.90
2018,06,17,12,34,25.00
2018,06,17,12,35,25.10
2018,06,17,12,36,25.30
2018,06,17,12,37,25.40
2018,06,17,12,38,25.40
2018,06,17,12,39,25.40
2018,06,17,12,40,25.30
2018,06,17,12,41,25.20
2018,06,17,12,42,25.20
2018,06,17,12,43,25.00
2018,06,17,12,44,24.90
2018,06,17,12,45,25.00
2018,06,17,12,46,25.30
2018,06,17,12,47,25.40
2018,06,17,12,48,25.30
2018,06,17,12,49,25.30
2018,06,17,12,50,25.30
2018,06,17,12,51,25.30
2018,06,17,12,52,25.40
2018,06,17,12,53,25.50
2018,06,17,12,54,25.50
2018,06,17,12,55,25.40
2018,06,17,12,56,25.30
2018,06,17,12,57,25.10
2018,06,17,12,58,24.90
2018,06,17,12,59,24.80
2018,06,17,13,00,24.70
2018,06,17,13,01,24.50
2018,06,17,13,02,24.40
2018,06,17,13,03,24.40
2018,06,17,13,04,24.40
2018,06,17,13,05,24.60
2018,06,17,13,06,24.70
2018,06,17,13,07,24.80
2018,06,17,13,08,24.90
2018,06,17,13,09,25.10
2018,06,17,13,10,25.10
2018,06,17,13,11,25.10
2018,06,17,13,12,25.20
2018,06,17,13,13,25.00
2018,06,17,13,14,24.80
2018,06,17,13,15,24.60
2018,06,17,13,16,24.60
2018,06,17,13,17,24.60
2018,06,17,13,18,24.70
2018,06,17,13,19,24.70
2018,06,17,13,20,24.70
2018,06,17,13,21,24.70
2018,06,17,13,22,24.80
2018,06,17,13,23,24.90
2018,06,17,13,24,24.90
2018,06,17,13,25,24.80
2018,06,17,13,26,24.70
2018,06,17,13,27,24.60
2018,06,17,13,28,24.60
2018,06,17,13,29,24.60
2018,06,17,13,30,24.50
2018,06,17,13,31,24.50
2018,06,17,13,32,24.60
2018,06,17,13,33,24.70
2018,06,17,13,34,24.70
2018,06,17,13,35,24.70
2018,06,17,13,36,24.70
2018,06,17,13,37,24.70
2018,06,17,13,38,24.70
2018,06,17,13,39,24.60
2018,06,17,13,40,24.70
2018,06,17,13,41,24.70
2018,06,17,13,42,24.60
2018,06,17,13,43,24.60
2018,06,17,13,44,24.60
2018,06,17,13,45,24.60
2018,06,17,13,46,24.50
2018,06,17,13,47,24.50
2018,06,17,13,48,24.70
2018,06,17,13,49,24.70
2018,06,17,13,50,24.80
2018,06,17,13,51,24.60
2018,06,17,13,52,24.40
2018,06,17,13,53,24.30
2018,06,17,13,54,24.40
2018,06,17,13,55,24.50
2018,06,17,13,56,24.60
2018,06,17,13,57,24.60
2018,06,17,13,58,24.60
2018,06,17,13,59,24.70
2018,06,17,14,00,24.80
2018,06,17,14,01,24.90
2018,06,17,14,02,25.00
2018,06,17,14,03,24.90
2018,06,17,14,04,24.80
2018,06,17,14,05,24.80
2018,06,17,14,06,24.80
2018,06,17,14,07,24.90
2018,06,17,14,08,25.00
2018,06,17,14,09,25.10
2018,06,17,14,10,25.30
2018,06,17,14,11,25.50
2018,06,17,14,12,25.60
2018,06,17,14,13,25.70
2018,06,17,14,14,25.70
2018,06,17,14,15,25.60
2018,06,17,14,16,25.60
2018,06,17,14,17,25.70
2018,06,17,14,18,25.90
2018,06,17,14,19,26.10
2018,06,17,14,20,26.20
2018,06,17,14,21,26.20
2018,06,17,14,22,26.30
2018,06,17,14,23,26.40
2018,06,17,14,24,26.50
2018,06,17,14,25,26.70
2018,06,17,14,26,26.90
2018,06,17,14,27,27.10
2018,06,17,14,28,27.20
2018,06,17,14,29,27.30
2018,06,17,14,30,27.30
2018,06,17,14,31,27.00
2018,06,17,14,32,26.80
2018,06,17,14,33,26.60
2018,06,17,14,34,26.50
2018,06,17,14,35,26.50
2018,06,17,14,36,26.70
2018,06,17,14,37,26.90
2018,06,17,14,38,27.20
2018,06,17,14,39,27.40
2018,06,17,14,40,27.40
2018,06,17,14,41,27.50
2018,06,17,14,42,27.70
2018,06,17,14,43,27.80
2018,06,17,14,44,27.80
2018,06,17,14,45,27.80
2018,06,17,14,46,27.70
2018,06,17,14,47,27.70
2018,06,17,14,48,27.70
2018,06,17,14,49,27.70
2018,06,17,14,50,27.70
2018,06,17,14,51,27.70
2018,06,17,14,52,27.60
2018,06,17,14,53,27.70
2018,06,17,14,54,27.90
2018,06,17,14,55,27.90
2018,06,17,14,56,27.90
2018,06,17,14,57,27.90
2018,06,17,14,58,28.00
2018,06,17,14,59,28.20
2018,06,17,15,00,28.20
2018,06,17,15,01,28.40
2018,06,17,15,02,28.40
2018,06,17,15,03,28.40
2018,06,17,15,04,28.60
2018,06,17,15,05,28.70
2018,06,17,15,06,28.80
2018,06,17,15,07,29.00
2018,06,17,15,08,29.10
2018,06,17,15,09,29.10
2018,06,17,15,10,29.10
2018,06,17,15,11,29.10
2018,06,17,15,12,29.00
2018,06,17,15,13,28.90
2018,06,17,15,14,28.90
2018,06,17,15,15,28.80
2018,06,17,15,16,28.70
2018,06,17,15,17,28.60
2018,06,17,15,18,28.60
2018,06,17,15,19,28.60
2018,06,17,15,20,28.60
2018,06,17,15,21,28.60
2018,06,17,15,22,28.60
2018,06,17,15,23,28.60
2018,06,17,15,24,28.80
2018,06,17,15,25,29.00
2018,06,17,15,26,29.30
2018,06,17,15,27,29.50
2018,06,17,15,28,29.70
2018,06,17,15,29,29.80
2018,06,17,15,30,29.90
2018,06,17,15,31,29.90
2018,06,17,15,32,29.90
2018,06,17,15,33,30.00
2018,06,17,15,34,30.10
2018,06,17,15,35,30.10
2018,06,17,15,36,30.00
2018,06,17,15,37,29.80
2018,06,17,15,38,29.70
2018,06,17,15,39,29.70
2018,06,17,15,40,29.70
2018,06,17,15,41,29.70
2018,06,17,15,42,29.70
2018,06,17,15,43,29.70
2018,06,17,15,44,29.70
2018,06,17,15,45,29.50
2018,06,17,15,46,29.50
2018,06,17,15,47,29.40
2018,06,17,15,48,29.40
2018,06,17,15,49,29.50
2018,06,17,15,50,29.60
2018,06,17,15,51,29.60
2018,06,17,15,52,29.50
2018,06,17,15,53,29.40
2018,06,17,15,54,29.30
2018,06,17,15,55,29.40
2018,06,17,15,56,29.50
2018,06,17,15,57,29.50
2018,06,17,15,58,29.60
2018,06,17,15,59,29.70
2018,06,17,16,00,29.70
2018,06,17,16,01,29.80
2018,06,17,16,02,29.80
2018,06,17,16,03,29.70
2018,06,17,16,04,29.70
2018,06,17,16,05,29.60
2018,06,17,16,06,29.50
2018,06,17,16,07,29.60
2018,06,17,16,08,29.60
2018,06,17,16,09,29.60
2018,06,17,16,10,29.80
2018,06,17,16,11,29.90
2018,06,17,16,12,29.90
2018,06,17,16,13,30.00
2018,06,17,16,14,30.00
2018,06,17,16,15,29.90
2018,06,17,16,16,29.80
2018,06,17,16,17,29.80
2018,06,17,16,18,29.80
2018,06,17,16,19,29.90
2018,06,17,16,20,29.80
2018,06,17,16,21,29.80
2018,06,17,16,22,29.80
2018,06,17,16,23,29.70
2018,06,17,16,24,29.70
2018,06,17,16,25,29.70
2018,06,17,16,26,29.70
2018,06,17,16,27,29.70
2018,06,17,16,28,29.70
2018,06,17,16,29,29.80
2018,06,17,16,30,30.00
2018,06,17,16,31,30.30
2018,06,17,16,32,30.50
2018,06,17,16,33,30.80
2018,06,17,16,34,31.00
2018,06,17,16,35,31.10
2018,06,17,16,36,31.10
2018,06,17,16,37,31.20
2018,06,17,16,38,31.20
2018,06,17,16,39,31.20
2018,06,17,16,40,31.30
2018,06,17,16,41,31.50
2018,06,17,16,42,31.60
2018,06,17,16,43,31.60
2018,06,17,16,44,31.40
2018,06,17,16,45,31.30
2018,06,17,16,46,31.20
2018,06,17,16,47,31.10
2018,06,17,16,48,31.00
2018,06,17,16,49,30.90
2018,06,17,16,50,30.70
2018,06,17,16,51,30.60
2018,06,17,16,52,30.50
2018,06,17,16,53,30.50
2018,06,17,16,54,30.40
2018,06,17,16,55,30.40
2018,06,17,16,56,30.40
2018,06,17,16,57,30.40
2018,06,17,16,58,30.20
2018,06,17,16,59,30.10
2018,06,17,17,00,29.90
2018,06,17,17,01,30.00
2018,06,17,17,02,30.10
2018,06,17,17,03,30.10
2018,06,17,17,04,30.10
2018,06,17,17,05,30.10
2018,06,17,17,06,30.10
2018,06,17,17,07,30.10
2018,06,17,17,08,30.20
2018,06,17,17,09,30.20
2018,06,17,17,10,30.20
2018,06,17,17,11,30.30
2018,06,17,17,12,30.40
2018,06,17,17,13,30.40
2018,06,17,17,14,30.50
2018,06,17,17,15,30.50
2018,06,17,17,16,30.40
2018,06,17,17,17,30.30
2018,06,17,17,18,30.30
2018,06,17,17,19,30.30